Total_Precipitation_Accumulation
0.07 0.07 0.09 0.11 0.12 0.14 0.18 0.26 0.32 0.34 0.38 0.44 0.54 0.61 0.89 1.13 1.25 1.41 1.57 1.79 1.97 2.17 2.24 2.45 2.86 3.14 3.33 3.47 3.72 3.99 4.38 4.78 4.93 4.76 4.71 4.75 4.66 4.53 4.20 4.08 4.24 4.30 4.04 4.06
0.10 0.11 0.10 0.11 0.11 0.12 0.17 0.25 0.34 0.39 0.41 0.44 0.63 0.74 0.94 1.38 1.56 1.53 1.57 1.56 1.61 2.05 2.28 2.54 2.89 3.07 3.04 3.22 3.49 3.88 4.35 4.70 4.63 4.77 5.03 5.06 4.99 4.49 4.25 4.17 4.25 4.10 3.83 3.72
0.11 0.10 0.07 0.09 0.11 0.14 0.17 0.21 0.29 0.36 0.51 0.50 0.64 1.11 1.24 1.51 1.65 1.51 1.45 1.46 1.42 1.61 1.95 2.13 2.35 2.56 2.77 3.18 3.61 3.95 4.29 4.43 4.47 4.74 4.91 4.68 4.57 4.21 4.20 4.25 4.17 3.95 3.79 3.72
0.08 0.09 0.07 0.10 0.12 0.13 0.19 0.18 0.20 0.29 0.51 0.66 0.74 1.46 1.69 1.86 1.75 1.44 1.45 1.50 1.60 1.72 1.80 1.94 2.02 2.35 2.73 3.15 3.73 4.17 4.19 4.28 4.18 4.38 4.55 4.43 4.14 3.98 3.93 3.95 3.74 3.63 3.51 3.45
0.12 0.09 0.11 0.10 0.10 0.11 0.15 0.15 0.17 0.27 0.41 0.66 0.80 1.25 1.73 1.81 1.75 1.38 1.27 1.47 1.69 1.67 1.71 1.95 1.92 2.14 2.43 2.85 3.27 3.71 4.07 4.16 4.00 4.00 4.14 4.33 4.17 3.92 3.72 3.61 3.54 3.49 3.48 3.31
0.13 0.11 0.11 0.11 0.12 0.11 0.13 0.17 0.27 0.40 0.63 1.05 0.83 0.95 1.41 1.69 1.58 1.29 1.28 1.40 1.57 1.73 1.71 1.86 2.15 2.23 2.39 2.67 3.06 3.33 3.55 3.55 3.55 3.56 3.64 3.79 3.88 3.87 3.65 3.45 3.47 3.44 3.33 3.22
0.23 0.23 0.18 0.14 0.14 0.13 0.15 0.30 0.76 1.19 1.46 1.25 0.85 0.93 1.33 1.30 1.10 1.02 1.10 1.35 1.60 1.87 1.86 1.89 2.09 2.23 2.33 2.44 2.64 2.82 2.91 2.97 2.98 3.02 3.03 3.05 3.20 3.30 3.19 3.12 3.21 3.25 3.17 3.10
0.33 0.33 0.23 0.19 0.16 0.16 0.19 0.33 0.80 1.10 1.21 1.12 1.03 1.24 1.33 1.07 0.93 0.94 1.03 1.21 1.50 1.67 1.69 1.78 1.87 1.83 1.85 1.91 2.05 2.20 2.30 2.36 2.33 2.43 2.56 2.60 2.83 2.89 2.93 3.06 2.92 2.98 2.97 2.97
0.20 0.21 0.20 0.20 0.20 0.19 0.26 0.36 0.39 0.62 0.76 1.15 1.37 1.47 1.35 1.03 1.17 1.15 1.24 1.29 1.29 1.33 1.37 1.39 1.42 1.49 1.61 1.65 1.73 1.84 1.95 1.99 1.95 2.03 2.21 2.27 2.35 2.52 2.68 2.80 2.67 2.53 2.62 2.53
0.13 0.17 0.19 0.16 0.16 0.20 0.28 0.42 0.55 0.82 1.13 1.33 1.48 1.75 1.92 1.69 1.63 1.52 1.63 1.76 1.46 1.18 1.20 1.23 1.22 1.27 1.31 1.36 1.51 1.67 1.76 1.95 2.00 2.03 2.12 2.02 2.13 2.25 2.42 2.50 2.35 2.36 2.51 2.53
0.12 0.15 0.21 0.22 0.21 0.25 0.38 0.48 0.58 0.75 0.89 1.22 1.64 1.86 1.58 1.77 1.82 1.73 1.59 1.57 1.42 1.08 0.99 1.08 1.02 1.05 1.13 1.21 1.35 1.52 1.78 1.99 1.99 1.87 1.96 2.02 2.02 2.15 2.22 2.24 2.16 2.26 2.40 2.59
0.16 0.16 0.22 0.26 0.26 0.25 0.34 0.50 0.60 0.81 0.92 1.03 1.32 1.61 1.20 1.39 1.38 1.25 1.28 1.13 1.05 0.98 0.80 0.90 0.95 0.91 0.97 1.04 1.17 1.37 1.58 1.77 1.82 1.77 1.81 1.97 2.07 2.08 2.08 2.06 2.07 2.09 2.11 2.20
0.18 0.23 0.39 0.60 0.55 0.38 0.35 0.37 0.43 0.54 0.72 0.85 1.20 1.52 1.07 1.11 1.20 1.16 1.10 1.06 0.92 0.98 0.89 0.85 0.95 0.99 0.96 0.98 1.11 1.31 1.39 1.61 1.85 1.87 1.89 2.03 1.99 1.92 1.96 2.17 2.27 2.16 2.13 2.16
0.17 0.22 0.35 0.65 0.68 0.55 0.43 0.42 0.42 0.47 0.64 0.68 0.80 1.19 1.17 1.18 1.22 1.27 1.17 0.99 0.87 0.91 0.98 0.90 0.91 0.93 0.85 0.90 1.06 1.24 1.34 1.50 1.71 1.89 1.99 2.13 2.06 2.06 2.13 2.26 2.36 2.32 2.23 2.25
0.17 0.17 0.22 0.33 0.43 0.43 0.40 0.40 0.40 0.43 0.49 0.63 0.73 0.92 1.08 1.09 1.14 1.29 1.16 1.03 0.99 0.91 0.91 0.93 0.88 0.81 0.79 0.82 0.93 1.14 1.34 1.50 1.65 1.91 2.04 2.14 2.20 2.23 2.30 2.31 2.37 2.36 2.27 2.27
0.23 0.25 0.28 0.38 0.46 0.46 0.41 0.40 0.36 0.36 0.34 0.42 0.64 0.93 0.92 0.88 0.93 1.10 1.11 1.20 1.20 1.09 0.91 0.83 0.83 0.86 0.89 0.83 0.86 0.94 1.13 1.35 1.55 1.80 1.95 2.03 2.16 2.30 2.32 2.31 2.36 2.35 2.38 2.44
0.29 0.35 0.46 0.51 0.55 0.64 0.65 0.51 0.49 0.49 0.46 0.54 0.80 0.96 0.80 0.80 0.84 0.92 0.99 1.14 1.12 1.08 1.16 1.13 1.03 1.10 1.02 1.00 1.01 1.02 1.08 1.31 1.54 1.74 1.87 1.98 2.10 2.20 2.23 2.19 2.33 2.45 2.41 2.34
0.35 0.44 0.50 0.54 0.73 1.03 0.78 0.50 0.45 0.48 0.55 0.54 0.63 0.70 0.68 0.73 0.76 0.88 1.03 1.03 0.98 0.89 0.95 1.13 1.20 1.22 1.18 1.12 1.19 1.20 1.24 1.38 1.58 1.79 1.92 2.00 2.12 2.15 2.18 2.20 2.17 2.19 2.21 2.19
0.34 0.50 0.60 0.68 0.82 0.86 0.76 0.61 0.59 0.61 0.71 0.56 0.57 0.65 0.71 0.80 0.89 1.06 0.94 0.90 0.96 0.90 0.98 1.04 1.08 1.15 1.30 1.33 1.36 1.40 1.52 1.66 1.69 1.81 1.99 2.13 2.19 2.18 2.19 2.20 2.14 2.15 2.15 2.11
0.38 0.50 0.69 0.75 1.02 1.13 0.92 0.67 0.68 0.80 1.24 0.85 0.72 0.83 0.93 0.93 1.23 1.32 0.96 1.00 1.11 0.94 0.93 1.02 1.08 1.11 1.28 1.44 1.52 1.55 1.65 1.81 1.81 1.88 2.01 2.10 2.17 2.27 2.19 2.28 2.35 2.33 2.24 2.18
0.71 0.75 0.78 0.81 1.08 1.20 0.85 0.66 0.80 1.50 1.73 1.05 0.93 1.01 1.10 1.15 1.16 1.08 0.94 1.10 1.24 1.06 0.98 0.94 1.04 1.29 1.41 1.50 1.64 1.71 1.67 1.71 1.75 1.90 2.02 2.11 2.20 2.29 2.27 2.33 2.38 2.39 2.34 2.33
1.06 1.05 0.99 1.08 1.43 1.61 0.97 0.89 1.27 1.50 1.19 1.10 1.06 1.05 1.07 1.04 0.99 0.93 0.89 1.00 1.15 1.20 1.25 1.29 1.38 1.48 1.52 1.57 1.73 1.85 1.88 1.82 1.90 1.99 1.99 2.10 2.24 2.08 2.08 2.32 2.41 2.43 2.44 2.39
1.18 1.26 1.33 1.41 1.56 1.42 1.28 1.30 1.33 1.22 1.28 1.23 1.10 1.09 1.06 1.06 1.04 1.05 1.00 0.94 1.07 1.26 1.30 1.35 1.40 1.42 1.50 1.61 1.72 1.93 1.98 1.94 1.94 2.02 2.05 2.08 2.13 2.23 2.29 2.34 2.42 2.39 2.33 2.29
1.35 1.23 1.50 1.70 1.66 1.49 1.50 1.44 1.38 1.33 1.35 1.27 1.17 1.21 1.16 1.20 1.32 1.30 1.24 1.19 1.10 1.11 1.15 1.22 1.36 1.40 1.56 1.75 1.89 2.09 2.11 2.05 2.08 2.17 2.27 2.25 2.18 2.22 2.37 2.52 2.50 2.42 2.27 2.30
1.61 1.60 1.81 2.11 2.03 1.78 1.61 1.42 1.31 1.25 1.20 1.15 1.15 1.21 1.25 1.23 1.35 1.39 1.48 1.49 1.40 1.28 1.26 1.37 1.55 1.68 1.77 1.86 1.91 2.06 2.21 2.29 2.38 2.40 2.41 2.44 2.44 2.45 2.52 2.49 2.45 2.44 2.37 2.32
1.66 1.91 2.26 2.44 2.06 1.88 1.81 1.59 1.50 1.30 1.20 1.17 1.18 1.18 1.24 1.24 1.32 1.31 1.41 1.56 1.57 1.58 1.63 1.60 1.60 1.76 1.85 1.87 1.95 2.08 2.33 2.59 2.79 2.72 2.59 2.62 2.68 2.68 2.60 2.58 2.39 2.26 2.17 2.11